Regional Weather Roundup
Issued by NWS Charleston, SC

Current Version | Previous Version | Graphics & Text | Print | Product List | Glossary On
Versions: 1 2 3 4 5 6 7 8 9 10 11 12 13 14 15 16 17 18 19 20 21 22 23 24 25 26 27 28 29 30 31 32 33 34 35 36 37 38 39 40 41 42 43 44 45 46 47 48 49 50
000 ASUS42 KCHS 070127 RWRCHS REGIONAL WEATHER ROUNDUP NATIONAL WEATHER SERVICE CHARLESTON SC 900 PM EDT MON JUL 06 2015 NOTE: "FAIR" INDICATES FEW OR NO CLOUDS BELOW 12,000 FEET WITH NO SIGNIFICANT WEATHER AND/OR OBSTRUCTIONS TO VISIBILITY. NOT ALL STATIONS ARE QUALITY CONTROLLED BY THE NATIONAL WEATHER SERVICE. USE DATA WITH CAUTION...ESPECIALLY DEWPOINT OBSERVATIONS. SCZ027-030-031-034>040-042>050-070200- ...SOUTHEAST SOUTH CAROLINA... CITY SKY/WX TMP DP RH WIND PRES REMARKS N CHARLESTON PTCLDY 78 72 81 S9 30.10R WATERFRONT PAR N/A 80 74 82 S7 30.08R MOUNT PLEASANT FAIR 79 73 83 S5 30.10S JOHNS ISLAND FAIR 79 73 83 CALM 30.11S PINOPOLIS NOT AVBL MONCKS CORNER FAIR 81 72 74 S8 30.10R SUMMERVILLE FAIR 77 73 88 CALM 30.11S BEAUFORT MCAS PTCLDY 79 74 84 S3 30.11S BEAUFORT ARPT FAIR 79 73 83 CALM 30.11S HILTON HEAD IS PTCLDY 79 75 89 S3 30.13R WALTERBORO CLEAR 77 72 83 S8 30.11S ALLENDALE FAIR 79 73 83 CALM 30.08S ...SOUTHERN MIDLANDS AND PEE DEE... CITY SKY/WX TMP DP RH WIND PRES REMARKS GEORGETOWN NOT AVBL KINGSTREE NOT AVBL ORANGEBURG CLEAR 80 71 74 S3 30.09R BARNWELL FAIR 82 73 74 CALM 30.09S AIKEN NOT AVBL MANNING FAIR 77 72 83 CALM 30.09R COLUMBIA PTCLDY 84 70 62 S3 30.07R SUMTER PTCLDY 82 71 70 S3 30.06S FLORENCE CLEAR 81 72 74 SE8 30.07F MYRTLE BEACH NOT AVBL N MYRTLE BEACH PTCLDY 80 72 76 SW10 30.10S $$ GAZ063-065-086>088-099>101-113>116-118-119-134>141-150-070200- ...SOUTHEAST GEORGIA... CITY SKY/WX TMP DP RH WIND PRES REMARKS SAVANNAH ARPT CLOUDY 75 70 84 E5 30.11F HUNTER AAF TSTM 73 73 100 SE9 30.09F FORT STEWART MOCLDY 76 71 84 SE3 30.09S STATESBORO NOT AVBL SYLVANIA PTCLDY 79 75 87 CALM 30.10S CLAXTON FAIR 81 72 74 CALM 30.09F ...CSRA...CENTRAL AND FAR SOUTHEAST GEORGIA... CITY SKY/WX TMP DP RH WIND PRES REMARKS THOMSON CLEAR 78 75 90 CALM 30.13R AUGUSTA-BUSH PTCLDY 79 68 69 W3 30.07R AUGUSTA-DANIEL PTCLDY 80 67 64 CALM 30.09S SWAINSBORO FAIR 81 73 78 W3 30.10S VIDALIA PTCLDY 79 70 73 W5 30.10S EASTMAN FAIR 77 74 91 CALM 30.13R HAZLEHURST FAIR 80 74 82 CALM 30.09S ALMA PTCLDY 77 73 87 CALM 30.10S WAYCROSS MOCLDY 81 77 87 CALM 30.11R FOG JESUP FAIR 79 73 83 S3 30.11R BAXLEY MOCLDY 81 73 78 CALM 30.10S BRUNSWICK MOCLDY 79 72 78 W12 30.14R SAINT SIMONS MOCLDY 78 73 84 S12 30.11F $$ SCZ027-028-034-036>038-045-046-048>050-GAZ119-141-070200- ...LAKE AND SUPPLEMENTAL COASTAL OBSERVATIONS... STATION/POSITION TIME TEMP WIND PRES WAVE SWELL AIR SEA DIR/SP/G HT/PER HT/PER/DIR (UTC) (F) (DEG/KT/KT) (MB) (FT/S) (FT/S/D) UPR LAKE MARION NOT AVBL WINYAH BAY 0000 80 200/ 5 1018.0 LAKE MURRAY 0000 85 240/ 4/ 5 1017.3 ACE BASIN NERRS NOT AVBL FORT PULASKI 0100 77 84 230/ 5/ 7 1020.5R SAPELO ISLAND 0100 79 170/ 10 1019.0S $$ ANZ835-935-AMZ111-154-330-350-352-354-370-450-454-472-070200- ...C-MAN AND BUOY OBSERVATIONS... STATION/POSITION TIME TEMP WIND PRES WAVE SWELL AIR SEA DIR/SP/G HT/PER HT/PER/DIR (UTC) (F) (DEG/KT/KT) (MB) (FT/S) (FT/S/D) BUOY 41004 0050 81 83 200/ 12/ 14 1018.9F 3/ 8 2/ 8 BUOY 41008 0050 79 79 170/ 12/ 14 1019.7S 2/ 8 2/100/ 8 FOLLY BEACH CMAN 0100 80 210/ 13/ 15 1019.6R CAPERS NEARSHORE 0008 81 200/ 14/ 17 1019.3F FRIPP NEARSHORE 0000 80 200/ 12/ 14 1019.3S STATION/POSITION TIME TEMP WIND PRES WAVE SWELL AIR SEA DIR/SP/G HT/PER HT/PER/DIR (UTC) (F) (DEG/KT/KT) (MB) (FT/S) (FT/S/D) 5E ST. MARYS GA 0021 77 N/A 3/ 9 FRYING PAN BUOY 0050 81 80 200/ 10/ 14 1019.9F 3/ 4 2/130/ 8 BUOY 41025 0050 81 81 200/ 16/ 17 1019.4F 3/ 4 2/100/ 9 CAPE LOOKOUT NC 0100 80 200/ 14/ 17 1019.0F BUOY 41002 0050 81 80 180/ 8/ 10 1021.6F 4/ 8 3/130/ 8 BUOY 41010 0020 82 84 190/ 4/ 6 1021.4R ST AUGUSTINE FL 0100 74 75 220/ 7/ 8 1021.2F $$

USA.gov is the U.S. government's official web portal to all federal, state and local government web resources and services.